| time (UTC) | temp F | wind direction | speed knots | gust knots | rain 1hr in | rain 24hr in | rain mn in | humidity % | barometer mb |
| 20260506092113 | 66 | 90 | 0.0 | 0.9 | 0.00 | 0.00 | 0.00 | 81 | 1017.5 |
| 20260506091612 | 66 | 114 | 0.0 | 2.6 | 0.00 | 0.00 | 0.00 | 80 | 1017.3 |
| 20260506091109 | 67 | 96 | 0.0 | 0.9 | 0.00 | 0.00 | 0.00 | 80 | 1017.3 |
| 20260506090607 | 67 | 120 | 0.0 | 1.7 | 0.00 | 0.00 | 0.00 | 80 | 1017.4 |
| 20260506085600 | 66 | 103 | 1.7 | 1.7 | 0.00 | 0.00 | 0.00 | 80 | 1017.5 |
| 20260506085056 | 66 | 106 | 0.0 | 1.7 | 0.00 | 0.00 | 0.00 | 80 | 1017.5 |
| 20260506084553 | 66 | 90 | 0.0 | 1.7 | 0.00 | 0.00 | 0.00 | 80 | 1017.3 |
| 20260506084049 | 66 | 120 | 0.0 | 0.9 | 0.00 | 0.00 | 0.00 | 80 | 1017.4 |
| 20260506083547 | 66 | 90 | 0.0 | 0.0 | 0.00 | 0.00 | 0.00 | 80 | 1017.4 |
| 20260506083044 | 66 | 97 | 0.0 | 1.7 | 0.00 | 0.00 | 0.00 | 79 | 1017.4 |
| 20260506082540 | 67 | 194 | 0.0 | 2.6 | 0.00 | 0.00 | 0.00 | 79 | 1017.3 |
| 20260506082036 | 66 | 90 | 0.0 | 1.7 | 0.00 | 0.00 | 0.00 | 79 | 1017.4 |
| 20260506081535 | 66 | 99 | 0.0 | 1.7 | 0.00 | 0.00 | 0.00 | 79 | 1017.2 |
| 20260506081032 | 66 | 90 | 0.0 | 1.7 | 0.00 | 0.00 | 0.00 | 79 | 1017.3 |
| 20260506080529 | 66 | 77 | 0.9 | 0.9 | 0.00 | 0.00 | 0.00 | 79 | 1017.4 |
| 20260506073513 | 66 | 114 | 0.0 | 1.7 | 0.00 | 0.00 | 0.00 | 78 | 1017.0 |
| 20260506073010 | 66 | 121 | 0.0 | 1.7 | 0.00 | 0.00 | 0.00 | 79 | 1016.8 |
| 20260506072507 | 66 | 99 | 0.0 | 1.7 | 0.00 | 0.00 | 0.00 | 79 | 1017.0 |
| 20260506072004 | 66 | 90 | 0.9 | 0.9 | 0.00 | 0.00 | 0.00 | 79 | 1017.3 |
| 20260506071502 | 66 | 123 | 0.0 | 1.7 | 0.00 | 0.00 | 0.00 | 80 | 1017.1 |
| 20260506070959 | 65 | 120 | 0.0 | 0.0 | 0.00 | 0.00 | 0.00 | 80 | 1017.5 |
| 20260506070456 | 65 | 105 | 0.0 | 0.9 | 0.00 | 0.00 | 0.00 | 80 | 1017.3 |
| 20260506062434 | 65 | 114 | 0.0 | 0.0 | 0.00 | 0.00 | 0.00 | 77 | 1017.7 |
| 20260506061929 | 66 | 81 | 0.0 | 0.9 | 0.00 | 0.00 | 0.00 | 77 | 1017.8 |
| 20260506061426 | 66 | 126 | 0.0 | 0.9 | 0.00 | 0.00 | 0.00 | 77 | 1017.9 |
| 20260506060924 | 66 | 98 | 0.0 | 0.9 | 0.00 | 0.00 | 0.00 | 77 | 1017.7 |
| 20260506060422 | 66 | 98 | 0.0 | 0.9 | 0.00 | 0.00 | 0.00 | 76 | 1018.0 |
| 20260506051354 | 65 | 98 | 0.0 | 0.9 | 0.00 | 0.00 | 0.00 | 80 | 1018.1 |
| 20260506050851 | 65 | 99 | 0.0 | 0.0 | 0.00 | 0.00 | 0.00 | 81 | 1018.1 |
| 20260506050349 | 64 | 151 | 0.0 | 0.9 | 0.00 | 0.00 | 0.00 | 80 | 1018.3 |
| 20260506044839 | 65 | 90 | 0.0 | 0.0 | 0.00 | 0.00 | 0.00 | 80 | 1018.3 |
| 20260506044337 | 65 | 90 | 0.0 | 0.0 | 0.00 | 0.00 | 0.00 | 80 | 1018.4 |
| 20260506043834 | 65 | 90 | 0.0 | 0.0 | 0.00 | 0.00 | 0.00 | 79 | 1018.3 |
| 20260506043331 | 65 | 90 | 0.0 | 0.0 | 0.00 | 0.00 | 0.00 | 79 | 1018.3 |
| 20260506042829 | 65 | 90 | 0.0 | 0.0 | 0.00 | 0.00 | 0.00 | 79 | 1018.4 |
| 20260506042328 | 65 | 90 | 0.0 | 0.0 | 0.00 | 0.00 | 0.00 | 78 | 1018.4 |
| 20260506041827 | 66 | 90 | 0.0 | 0.0 | 0.00 | 0.00 | 0.00 | 78 | 1018.5 |
| 20260506041323 | 66 | 90 | 0.0 | 0.0 | 0.00 | 0.00 | 0.00 | 78 | 1018.4 |
| 20260506040820 | 66 | 90 | 0.0 | 0.0 | 0.00 | 0.00 | 0.00 | 78 | 1018.5 |
| 20260506040317 | 66 | 90 | 0.0 | 0.0 | 0.00 | 0.00 | 0.00 | 77 | 1018.5 |
| 20260506035814 | 66 | 90 | 0.0 | 0.0 | 0.00 | 0.00 | 0.00 | 77 | 1018.6 |
| 20260506035311 | 66 | 90 | 0.0 | 0.0 | 0.00 | 0.00 | 0.00 | 77 | 1018.6 |
| 20260506034808 | 66 | 90 | 0.0 | 0.0 | 0.00 | 0.00 | 0.00 | 76 | 1018.4 |
| 20260506034305 | 67 | 90 | 0.0 | 0.9 | 0.00 | 0.00 | 0.00 | 76 | 1018.5 |
| 20260506033802 | 66 | 114 | 0.0 | 0.0 | 0.00 | 0.00 | 0.00 | 76 | 1018.7 |
| 20260506033259 | 67 | 114 | 0.0 | 0.0 | 0.00 | 0.00 | 0.00 | 75 | 1018.7 |
| 20260506032756 | 66 | 114 | 0.0 | 0.0 | 0.00 | 0.00 | 0.00 | 75 | 1018.5 |
| 20260506032253 | 67 | 114 | 0.0 | 0.0 | 0.00 | 0.00 | 0.00 | 75 | 1018.5 |
| 20260506031749 | 67 | 114 | 0.0 | 0.0 | 0.00 | 0.00 | 0.00 | 74 | 1018.4 |
| 20260506031247 | 67 | 114 | 0.0 | 0.0 | 0.00 | 0.00 | 0.00 | 74 | 1018.5 |
| 20260506030745 | 67 | 114 | 0.0 | 0.0 | 0.00 | 0.00 | 0.00 | 74 | 1018.5 |
| 20260506030243 | 67 | 114 | 0.0 | 0.0 | 0.00 | 0.00 | 0.00 | 74 | 1018.5 |
| 20260506025739 | 68 | 114 | 0.0 | 0.0 | 0.00 | 0.00 | 0.00 | 74 | 1018.2 |
| 20260506025235 | 68 | 114 | 0.0 | 0.0 | 0.00 | 0.00 | 0.00 | 73 | 1018.3 |
| 20260506024732 | 68 | 114 | 0.0 | 0.0 | 0.00 | 0.00 | 0.00 | 73 | 1018.3 |
| 20260506024229 | 68 | 114 | 0.0 | 0.0 | 0.00 | 0.00 | 0.00 | 73 | 1018.3 |
| 20260506023725 | 68 | 114 | 0.0 | 0.0 | 0.00 | 0.00 | 0.00 | 73 | 1018.3 |
| 20260506023223 | 69 | 114 | 0.0 | 0.0 | 0.00 | 0.00 | 0.00 | 73 | 1018.2 |
| 20260506022719 | 69 | 114 | 0.0 | 0.9 | 0.00 | 0.00 | 0.00 | 73 | 1018.2 |
| 20260506022217 | 69 | 106 | 0.0 | 0.0 | 0.00 | 0.00 | 0.00 | 72 | 1017.8 |
| 20260506021715 | 69 | 106 | 0.0 | 0.0 | 0.00 | 0.00 | 0.00 | 72 | 1017.8 |
| 20260506021212 | 69 | 106 | 0.0 | 0.0 | 0.00 | 0.00 | 0.00 | 71 | 1017.8 |
| 20260506020708 | 70 | 106 | 0.0 | 0.0 | 0.00 | 0.00 | 0.00 | 70 | 1017.6 |
| 20260506020206 | 70 | 90 | 0.0 | 1.7 | 0.00 | 0.00 | 0.00 | 70 | 1017.5 |
| 20260506015704 | 70 | 105 | 0.0 | 2.6 | 0.00 | 0.00 | 0.00 | 70 | 1017.8 |
| 20260506015201 | 71 | 175 | 0.0 | 0.0 | 0.00 | 0.00 | 0.00 | 69 | 1017.7 |
| 20260506014658 | 71 | 99 | 0.0 | 1.7 | 0.00 | 0.00 | 0.00 | 69 | 1017.5 |
| 20260506014154 | 70 | 157 | 0.0 | 1.7 | 0.00 | 0.00 | 0.00 | 69 | 1017.6 |
| 20260506013652 | 71 | 99 | 0.0 | 2.6 | 0.00 | 0.00 | 0.00 | 69 | 1017.6 |
| 20260506013149 | 71 | 105 | 0.0 | 1.7 | 0.00 | 0.00 | 0.00 | 69 | 1017.7 |
| 20260506012645 | 71 | 157 | 0.0 | 2.6 | 0.00 | 0.00 | 0.00 | 69 | 1017.4 |
| 20260506012141 | 71 | 180 | 0.0 | 1.7 | 0.00 | 0.00 | 0.00 | 69 | 1017.6 |
| 20260506011639 | 71 | 154 | 0.0 | 3.5 | 0.00 | 0.00 | 0.00 | 68 | 1017.6 |
| 20260506011135 | 71 | 120 | 0.0 | 2.6 | 0.00 | 0.00 | 0.00 | 69 | 1017.4 |
| 20260506010634 | 71 | 126 | 0.0 | 1.7 | 0.00 | 0.00 | 0.00 | 69 | 1017.4 |
| 20260506010131 | 71 | 120 | 0.0 | 1.7 | 0.00 | 0.00 | 0.00 | 69 | 1017.2 |
| 20260506005628 | 72 | 117 | 0.0 | 1.7 | 0.00 | 0.00 | 0.00 | 68 | 1017.4 |
| 20260506005124 | 72 | 117 | 1.7 | 2.6 | 0.00 | 0.00 | 0.00 | 68 | 1017.3 |
| 20260506004621 | 72 | 161 | 1.7 | 2.6 | 0.00 | 0.00 | 0.00 | 67 | 1017.4 |
| 20260506004118 | 72 | 114 | 0.0 | 3.5 | 0.00 | 0.00 | 0.00 | 67 | 1017.1 |
| 20260506003614 | 72 | 154 | 0.9 | 3.5 | 0.00 | 0.00 | 0.00 | 66 | 1017.5 |
| 20260506003110 | 73 | 143 | 1.7 | 2.6 | 0.00 | 0.00 | 0.00 | 66 | 1017.2 |
| 20260506002607 | 73 | 120 | 2.6 | 3.5 | 0.00 | 0.00 | 0.00 | 66 | 1017.2 |
| 20260506002103 | 73 | 161 | 1.7 | 2.6 | 0.00 | 0.00 | 0.00 | 66 | 1017.3 |
| 20260506001559 | 73 | 188 | 0.0 | 2.6 | 0.00 | 0.00 | 0.00 | 67 | 1016.9 |
| 20260506001056 | 73 | 180 | 1.7 | 4.3 | 0.00 | 0.00 | 0.00 | 65 | 1017.2 |
| 20260506000554 | 73 | 77 | 1.7 | 3.5 | 0.00 | 0.00 | 0.00 | 65 | 1017.0 |
| 20260506000051 | 74 | 114 | 1.7 | 4.3 | 0.00 | 0.00 | 0.00 | 65 | 1016.8 |
| 20260505235549 | 74 | 113 | 1.7 | 4.3 | 0.00 | 0.00 | 0.00 | 64 | 1017.2 |
| 20260505235045 | 74 | 180 | 1.7 | 2.6 | 0.00 | 0.00 | 0.00 | 63 | 1016.8 |
| 20260505234542 | 75 | 139 | 1.7 | 6.1 | 0.00 | 0.00 | 0.00 | 63 | 1017.0 |
| 20260505234039 | 75 | 121 | 3.5 | 7.0 | 0.00 | 0.00 | 0.00 | 62 | 1017.1 |
| 20260505233537 | 75 | 108 | 2.6 | 5.2 | 0.00 | 0.00 | 0.00 | 62 | 1017.0 |
| 20260505233034 | 75 | 81 | 2.6 | 4.3 | 0.00 | 0.00 | 0.00 | 61 | 1017.0 |
| 20260505232532 | 76 | 79 | 0.0 | 4.3 | 0.00 | 0.00 | 0.00 | 61 | 1016.9 |
| 20260505232029 | 76 | 90 | 0.9 | 2.6 | 0.00 | 0.00 | 0.00 | 60 | 1016.8 |
| 20260505231526 | 77 | 90 | 1.7 | 3.5 | 0.00 | 0.00 | 0.00 | 59 | 1016.8 |
| 20260505231025 | 77 | 87 | 3.5 | 3.5 | 0.00 | 0.00 | 0.00 | 59 | 1016.7 |
| 20260505230521 | 78 | 115 | 1.7 | 4.3 | 0.00 | 0.00 | 0.00 | 58 | 1016.8 |
| 20260505230018 | 78 | 98 | 2.6 | 5.2 | 0.00 | 0.00 | 0.00 | 58 | 1016.7 |
| 20260505225515 | 78 | 90 | 1.7 | 4.3 | 0.00 | 0.00 | 0.00 | 57 | 1016.8 |
| 20260505225011 | 78 | 109 | 2.6 | 6.1 | 0.00 | 0.00 | 0.00 | 57 | 1016.7 |
| 20260505224508 | 79 | 85 | 1.7 | 3.5 | 0.00 | 0.00 | 0.00 | 56 | 1016.9 |
| 20260505224005 | 79 | 90 | 2.6 | 3.5 | 0.00 | 0.00 | 0.00 | 55 | 1016.8 |
| 20260505223502 | 80 | 90 | 0.0 | 6.1 | 0.00 | 0.00 | 0.00 | 53 | 1016.9 |
| 20260505222958 | 80 | 125 | 2.6 | 4.3 | 0.00 | 0.00 | 0.00 | 52 | 1016.7 |
| 20260505222455 | 80 | 112 | 2.6 | 3.5 | 0.00 | 0.00 | 0.00 | 52 | 1016.9 |
| 20260505221950 | 78 | 135 | 0.0 | 5.2 | 0.00 | 0.00 | 0.00 | 52 | 1017.0 |
| 20260505221448 | 79 | 131 | 4.3 | 6.1 | 0.00 | 0.00 | 0.00 | 53 | 1016.9 |
| 20260505220945 | 80 | 109 | 2.6 | 7.0 | 0.00 | 0.00 | 0.00 | 51 | 1016.9 |
| 20260505220442 | 82 | 114 | 1.7 | 3.5 | 0.00 | 0.00 | 0.00 | 50 | 1017.0 |
| 20260505215939 | 82 | 81 | 1.7 | 3.5 | 0.00 | 0.00 | 0.00 | 50 | 1016.9 |
| 20260505215438 | 81 | 75 | 2.6 | 7.0 | 0.00 | 0.00 | 0.00 | 49 | 1017.0 |
| 20260505214935 | 81 | 90 | 1.7 | 4.3 | 0.00 | 0.00 | 0.00 | 50 | 1016.9 |
| 20260505214433 | 80 | 152 | 1.7 | 6.1 | 0.00 | 0.00 | 0.00 | 49 | 1016.8 |
| 20260505213930 | 82 | 78 | 2.6 | 6.1 | 0.00 | 0.00 | 0.00 | 49 | 1016.9 |
| 20260505213427 | 82 | 60 | 4.3 | 6.1 | 0.00 | 0.00 | 0.00 | 47 | 1016.9 |
| 20260505212923 | 82 | 123 | 4.3 | 5.2 | 0.00 | 0.00 | 0.00 | 47 | 1016.9 |
| 20260505212420 | 83 | 150 | 2.6 | 2.6 | 0.00 | 0.00 | 0.00 | 47 | 1017.0 |
| 20260505211916 | 82 | 70 | 2.6 | 5.2 | 0.00 | 0.00 | 0.00 | 47 | 1016.8 |
| 20260505211414 | 82 | 65 | 1.7 | 4.3 | 0.00 | 0.00 | 0.00 | 47 | 1017.0 |
| 20260505210910 | 82 | 153 | 2.6 | 7.0 | 0.00 | 0.00 | 0.00 | 47 | 1017.0 |
| 20260505210408 | 82 | 79 | 2.6 | 6.1 | 0.00 | 0.00 | 0.00 | 48 | 1016.9 |
| 20260505205905 | 82 | 105 | 3.5 | 5.2 | 0.00 | 0.00 | 0.00 | 49 | 1016.8 |
| 20260505205403 | 82 | 70 | 2.6 | 7.0 | 0.00 | 0.00 | 0.00 | 49 | 1017.1 |
| 20260505204900 | 83 | 79 | 2.6 | 4.3 | 0.00 | 0.00 | 0.00 | 49 | 1017.0 |
| 20260505204357 | 83 | 77 | 4.3 | 6.1 | 0.00 | 0.00 | 0.00 | 49 | 1017.3 |
| 20260505203855 | 82 | 101 | 3.5 | 6.1 | 0.00 | 0.00 | 0.00 | 50 | 1017.3 |
| 20260505203350 | 83 | 118 | 3.5 | 5.2 | 0.00 | 0.00 | 0.00 | 48 | 1017.1 |
| 20260505202847 | 82 | 105 | 1.7 | 7.8 | 0.00 | 0.00 | 0.00 | 48 | 1017.2 |
| 20260505202343 | 81 | 76 | 4.3 | 7.8 | 0.00 | 0.00 | 0.00 | 49 | 1017.2 |
| 20260505201840 | 82 | 69 | 3.5 | 7.0 | 0.00 | 0.00 | 0.00 | 48 | 1017.4 |
| 20260505201337 | 82 | 167 | 4.3 | 7.0 | 0.00 | 0.00 | 0.00 | 48 | 1017.6 |
| 20260505200836 | 82 | 65 | 3.5 | 6.1 | 0.00 | 0.00 | 0.00 | 49 | 1017.5 |
| 20260505200332 | 82 | 101 | 4.3 | 6.1 | 0.00 | 0.00 | 0.00 | 49 | 1017.6 |
| 20260505195828 | 81 | 68 | 5.2 | 9.6 | 0.00 | 0.00 | 0.00 | 48 | 1017.4 |
| 20260505195325 | 82 | 66 | 0.9 | 6.1 | 0.00 | 0.00 | 0.00 | 48 | 1017.4 |
| 20260505194822 | 82 | 76 | 4.3 | 7.8 | 0.00 | 0.00 | 0.00 | 47 | 1017.6 |
| 20260505194319 | 82 | 62 | 2.6 | 6.1 | 0.00 | 0.00 | 0.00 | 47 | 1017.5 |
| 20260505193814 | 82 | 114 | 4.3 | 7.0 | 0.00 | 0.00 | 0.00 | 49 | 1017.4 |
| 20260505193313 | 81 | 40 | 3.5 | 7.0 | 0.00 | 0.00 | 0.00 | 49 | 1017.6 |
| 20260505192810 | 82 | 61 | 2.6 | 3.5 | 0.00 | 0.00 | 0.00 | 47 | 1017.6 |
| 20260505192310 | 82 | 115 | 1.7 | 6.1 | 0.00 | 0.00 | 0.00 | 50 | 1017.7 |
| 20260505191806 | 82 | 70 | 5.2 | 7.8 | 0.00 | 0.00 | 0.00 | 48 | 1017.7 |
| 20260505191304 | 82 | 49 | 4.3 | 6.1 | 0.00 | 0.00 | 0.00 | 49 | 1018.0 |
| 20260505190800 | 82 | 103 | 3.5 | 4.3 | 0.00 | 0.00 | 0.00 | 49 | 1017.9 |
| 20260505190256 | 83 | 72 | 6.1 | 6.1 | 0.00 | 0.00 | 0.00 | 49 | 1018.2 |
| 20260505185752 | 83 | 90 | 2.6 | 5.2 | 0.00 | 0.00 | 0.00 | 49 | 1018.1 |
| 20260505185248 | 83 | 63 | 2.6 | 6.1 | 0.00 | 0.00 | 0.00 | 47 | 1018.0 |
| 20260505184744 | 83 | 90 | 2.6 | 6.1 | 0.00 | 0.00 | 0.00 | 48 | 1018.0 |
| 20260505184242 | 83 | 100 | 3.5 | 7.8 | 0.00 | 0.00 | 0.00 | 49 | 1018.0 |
| 20260505183738 | 82 | 103 | 5.2 | 7.0 | 0.00 | 0.00 | 0.00 | 49 | 1018.2 |
| 20260505183236 | 83 | 65 | 6.1 | 7.0 | 0.00 | 0.00 | 0.00 | 47 | 1017.9 |
| 20260505182732 | 84 | 76 | 5.2 | 5.2 | 0.00 | 0.00 | 0.00 | 47 | 1018.1 |
| 20260505182229 | 83 | 124 | 0.0 | 5.2 | 0.00 | 0.00 | 0.00 | 49 | 1018.1 |
| 20260505181725 | 82 | 81 | 1.7 | 5.2 | 0.00 | 0.00 | 0.00 | 50 | 1018.3 |
| 20260505181223 | 83 | 105 | 2.6 | 6.1 | 0.00 | 0.00 | 0.00 | 50 | 1018.3 |
| 20260505180720 | 82 | 59 | 5.2 | 5.2 | 0.00 | 0.00 | 0.00 | 50 | 1018.4 |
| 20260505180216 | 82 | 87 | 3.5 | 5.2 | 0.00 | 0.00 | 0.00 | 51 | 1018.4 |
| 20260505175713 | 81 | 103 | 1.7 | 4.3 | 0.00 | 0.00 | 0.00 | 53 | 1018.4 |
| 20260505175209 | 81 | 97 | 2.6 | 7.0 | 0.00 | 0.00 | 0.00 | 52 | 1018.6 |
| 20260505174706 | 81 | 99 | 1.7 | 5.2 | 0.00 | 0.00 | 0.00 | 54 | 1018.6 |
| 20260505174203 | 82 | 87 | 2.6 | 6.1 | 0.00 | 0.00 | 0.00 | 52 | 1018.4 |
| 20260505173659 | 84 | 117 | 0.0 | 3.5 | 0.00 | 0.00 | 0.00 | 49 | 1018.7 |
| 20260505173155 | 83 | 170 | 2.6 | 3.5 | 0.00 | 0.00 | 0.00 | 51 | 1018.4 |
| 20260505172653 | 82 | 117 | 1.7 | 3.5 | 0.00 | 0.00 | 0.00 | 52 | 1018.6 |
| 20260505172150 | 82 | 82 | 4.3 | 7.0 | 0.00 | 0.00 | 0.00 | 52 | 1018.5 |
| 20260505171649 | 81 | 67 | 1.7 | 4.3 | 0.00 | 0.00 | 0.00 | 52 | 1018.5 |
| 20260505171147 | 80 | 114 | 0.9 | 6.1 | 0.00 | 0.00 | 0.00 | 54 | 1018.5 |
| 20260505170644 | 80 | 37 | 4.3 | 4.3 | 0.00 | 0.00 | 0.00 | 52 | 1018.9 |
| 20260505170140 | 80 | 94 | 2.6 | 5.2 | 0.00 | 0.00 | 0.00 | 55 | 1018.8 |
| 20260505165635 | 80 | 75 | 4.3 | 4.3 | 0.00 | 0.00 | 0.00 | 54 | 1018.9 |
| 20260505165131 | 81 | 90 | 0.9 | 5.2 | 0.00 | 0.00 | 0.00 | 52 | 1018.9 |
| 20260505164626 | 80 | 58 | 3.5 | 6.1 | 0.00 | 0.00 | 0.00 | 51 | 1019.0 |
| 20260505164124 | 80 | 99 | 1.7 | 5.2 | 0.00 | 0.00 | 0.00 | 52 | 1019.2 |
| 20260505163623 | 81 | 90 | 4.3 | 4.3 | 0.00 | 0.00 | 0.00 | 53 | 1018.9 |
| 20260505163120 | 80 | 85 | 0.0 | 3.5 | 0.00 | 0.00 | 0.00 | 54 | 1019.1 |
| 20260505162617 | 81 | 74 | 4.3 | 4.3 | 0.00 | 0.00 | 0.00 | 53 | 1019.1 |
| 20260505162115 | 80 | 71 | 2.6 | 8.7 | 0.00 | 0.00 | 0.00 | 55 | 1018.9 |
| 20260505161612 | 80 | 65 | 4.3 | 4.3 | 0.00 | 0.00 | 0.00 | 52 | 1018.9 |
| 20260505161109 | 80 | 60 | 2.6 | 5.2 | 0.00 | 0.00 | 0.00 | 51 | 1019.2 |
| 20260505160607 | 80 | 96 | 1.7 | 4.3 | 0.00 | 0.00 | 0.00 | 52 | 1019.1 |
| 20260505160104 | 80 | 58 | 2.6 | 4.3 | 0.00 | 0.00 | 0.00 | 53 | 1019.1 |
| 20260505153044 | 79 | 70 | 1.7 | 6.1 | 0.00 | 0.00 | 0.00 | 55 | 1019.0 |
| 20260505152540 | 79 | 66 | 2.6 | 5.2 | 0.00 | 0.00 | 0.00 | 55 | 1019.2 |
| 20260505152036 | 78 | 78 | 1.7 | 4.3 | 0.00 | 0.00 | 0.00 | 57 | 1019.2 |
| 20260505151531 | 78 | 90 | 1.7 | 3.5 | 0.00 | 0.00 | 0.00 | 57 | 1019.0 |
| 20260505151029 | 77 | 59 | 1.7 | 3.5 | 0.00 | 0.00 | 0.00 | 59 | 1019.1 |
| 20260505150525 | 77 | 96 | 1.7 | 4.3 | 0.00 | 0.00 | 0.00 | 60 | 1019.1 |
| 20260505140450 | 75 | 114 | 2.6 | 4.3 | 0.00 | 0.00 | 0.00 | 62 | 1019.1 |
| 20260505124903 | 71 | 120 | 4.3 | 4.3 | 0.00 | 0.00 | 0.00 | 70 | 1018.6 |
| 20260505124401 | 71 | 121 | 1.7 | 2.6 | 0.00 | 0.00 | 0.00 | 71 | 1018.4 |
| 20260505123856 | 70 | 145 | 0.0 | 2.6 | 0.00 | 0.00 | 0.00 | 74 | 1018.7 |
| 20260505123353 | 69 | 98 | 0.0 | 1.7 | 0.00 | 0.00 | 0.00 | 76 | 1018.9 |
| 20260505122849 | 67 | 117 | 0.0 | 1.7 | 0.00 | 0.00 | 0.00 | 79 | 1018.9 |
| 20260505122347 | 66 | 99 | 0.0 | 0.9 | 0.00 | 0.00 | 0.00 | 83 | 1018.6 |
| 20260505121843 | 64 | 135 | 1.7 | 1.7 | 0.00 | 0.00 | 0.00 | 86 | 1018.6 |
| 20260505121340 | 63 | 123 | 0.0 | 0.0 | 0.00 | 0.00 | 0.00 | 88 | 1018.4 |
| 20260505120836 | 63 | 123 | 0.0 | 1.7 | 0.00 | 0.00 | 0.00 | 88 | 1018.5 |
| 20260505120332 | 62 | 81 | 0.0 | 0.0 | 0.00 | 0.00 | 0.00 | 88 | 1018.5 |
| 20260505115831 | 61 | 90 | 0.0 | 0.9 | 0.00 | 0.00 | 0.00 | 88 | 1018.4 |
| 20260505115328 | 61 | 106 | 0.0 | 0.9 | 0.00 | 0.00 | 0.00 | 89 | 1018.5 |
| 20260505114826 | 61 | 90 | 0.0 | 0.9 | 0.00 | 0.00 | 0.00 | 89 | 1018.2 |
| 20260505114323 | 60 | 97 | 0.0 | 0.9 | 0.00 | 0.00 | 0.00 | 89 | 1018.5 |
| 20260505113819 | 60 | 106 | 0.0 | 0.9 | 0.00 | 0.00 | 0.00 | 89 | 1018.2 |
| 20260505113315 | 60 | 106 | 0.0 | 1.7 | 0.00 | 0.00 | 0.00 | 89 | 1018.2 |
| 20260505112811 | 60 | 90 | 0.0 | 0.9 | 0.00 | 0.00 | 0.00 | 89 | 1018.5 |
| 20260505112309 | 59 | 106 | 0.9 | 0.9 | 0.00 | 0.00 | 0.00 | 89 | 1018.1 |
| 20260505111804 | 59 | 90 | 0.0 | 0.0 | 0.00 | 0.00 | 0.00 | 88 | 1018.2 |
| 20260505111300 | 59 | 114 | 1.7 | 1.7 | 0.00 | 0.00 | 0.00 | 88 | 1018.2 |
| 20260505110756 | 59 | 90 | 0.0 | 0.9 | 0.00 | 0.00 | 0.00 | 88 | 1018.1 |
| 20260505110254 | 59 | 99 | 0.0 | 1.7 | 0.00 | 0.00 | 0.00 | 88 | 1017.9 |
| 20260505101728 | 58 | 81 | 0.0 | 0.0 | 0.00 | 0.00 | 0.00 | 88 | 1017.6 |
| 20260505101224 | 58 | 81 | 0.0 | 0.0 | 0.00 | 0.00 | 0.00 | 88 | 1017.5 |
| 20260505100720 | 58 | 66 | 0.0 | 0.9 | 0.00 | 0.00 | 0.00 | 88 | 1017.6 |
| 20260505100217 | 58 | 66 | 0.0 | 0.9 | 0.00 | 0.00 | 0.00 | 87 | 1017.5 |
| 20260505095713 | 58 | 90 | 0.0 | 0.0 | 0.00 | 0.00 | 0.00 | 87 | 1017.5 |
| 20260505095211 | 58 | 90 | 0.0 | 0.9 | 0.00 | 0.00 | 0.00 | 87 | 1017.3 |
| 20260505094706 | 59 | 98 | 0.0 | 0.9 | 0.00 | 0.00 | 0.00 | 87 | 1017.6 |
| 20260505094203 | 58 | 90 | 0.0 | 0.0 | 0.00 | 0.00 | 0.00 | 87 | 1017.6 |
| 20260505093659 | 59 | 90 | 0.0 | 0.9 | 0.00 | 0.00 | 0.00 | 87 | 1017.3 |
| 20260505093157 | 58 | 90 | 0.0 | 0.9 | 0.00 | 0.00 | 0.00 | 87 | 1017.2 |
| 20260505092653 | 58 | 90 | 0.0 | 0.9 | 0.00 | 0.00 | 0.00 | 87 | 1017.2 |